Regional Weather Roundup
Issued by NWS Albany, NY

Home | Current Version | Previous Version | Text Only | Print | Product List | Glossary On
Versions: 1 2 3 4 5 6 7 8 9 10 11 12 13 14 15 16 17 18 19 20 21 22 23 24 25 26 27 28 29 30 31 32 33 34 35 36 37 38 39 40 41 42 43 44 45 46 47 48 49 50
759
ASUS41 KALY 061610
RWRALY

NEW YORK STATE HOURLY WEATHER ROUNDUP
NATIONAL WEATHER SERVICE ALBANY NY
1200 PM EDT FRI MAY 06 2016

NOTE: "FAIR" INDICATES FEW OR NO CLOUDS BELOW 12,000 FEET WITH NO
SIGNIFICANT WEATHER AND/OR NO OBSTRUCTIONS TO VISIBILITY.

NYZ032-033-038>043-046>054-057>066-NYZ062>081-082-084-061700-
EAST


CITY           SKY/WX    TMP DP  RH WIND       PRES   REMARKS
ALBANY         CLOUDY    57  42  57 N7        29.81R
GLENS FALLS    CLOUDY    62  41  46 NE13      29.81S
POUGHKEEPSIE   LGT RAIN  53  49  86 N3        29.75R FOG
NEWBURGH       LGT RAIN  50  50 100 NE17      29.75R FOG
MONTGOMERY     LGT RAIN  51  48  89 NE12      29.73R FOG
WHITE PLAINS   CLOUDY    49  47  93 E10       29.73R
ISLIP          CLOUDY    51  47  86 E13       29.74R
NEW YORK CITY  CLOUDY    51  48  89 NE18      29.73S
CENTRAL PARK   CLOUDY    49  45  86 NE9       29.75S
$$

NYZ005>009-017-018-044>046-055-056-061700-
CENTRAL


CITY           SKY/WX    TMP DP  RH WIND       PRES   REMARKS
FULTON         CLOUDY    62  41  46 N16G25    29.83F
SYRACUSE       CLOUDY    62  41  46 N6        29.79F
ROME           CLOUDY    62  41  46 CALM      29.79F
ELMIRA         LGT RAIN  55  39  54 N14G25    29.79S
BINGHAMTON     LGT RAIN  48  42  80 N12       29.76S
MONTICELLO     CLOUDY    48  46  93 NE9       29.72F
$$

NYZ026>034-041>043-087-061700-
NORTH


CITY           SKY/WX    TMP DP  RH WIND       PRES   REMARKS
WATERTOWN      MOSUNNY   62  39  42 NE17G24   29.84F
FORT DRUM      NOT AVBL
MASSENA        SUNNY     60  35  39 NE20G26   29.91F
SARANAC LAKE   SUNNY     58  36  43 NE17      29.85S
PLATTSBURGH    SUNNY     61  39  44 NE15      29.88S
$$

NYZ001>004-010>016-019>021-085-061700-
WEST


CITY           SKY/WX    TMP DP  RH WIND       PRES   REMARKS
NIAGARA FALLS  MOSUNNY   64  39  39 N14       29.88S
BUFFALO        MOSUNNY   63  37  38 NE13G21   29.87S
DUNKIRK        SUNNY     59  44  57 N10       29.88F
JAMESTOWN      MOSUNNY   57  36  44 NE16G22   29.85S
WELLSVILLE     MOSUNNY   59  37  44 NE17G29   29.82F
ROCHESTER      PTSUNNY   59  38  45 NE15      29.88F
PENN YAN       CLOUDY    56  37  49 N12G22    29.83F
$$

             KEY
       WCI = WIND CHILL INDEX
       VSB = VISIBILITY
       HX  = HEAT INDEX
$$




USA.gov is the U.S. government's official web portal to all federal, state and local government web resources and services.